User: anonymous   Login
Location: ??
(35.5052°N, 139.7262°E)
Time: 08:30:46
(UTC+00:00)
Language:

Meteor 2-4 Rocket - Orbit

View from above orbital plane
View from above orbital plane
View from above satellite
View from above satellite

Ground track
Ground track

The orbit data is extracted from the following two-line orbital elements,

1 11289U 79021B   22028.91268051  .00000153  00000-0  74454-4 0  9993
2 11289  81.2488 318.4903 0076483 126.6198 234.2040 14.11634908208544
Epoch (UTC): 28 January 2022 21:54:15
Eccentricity: 0.0076483
inclination: 81.2488°
perigee height: 798 km
apogee height: 909 km
right ascension of ascending node: 318.4903°
argument of perigee: 126.6198°
revolutions per day: 14.11634908
mean anomaly at epoch: 234.2040°
orbit number at epoch: 20854

The dashed part of the orbit path shows where the satellite is in the earth's shadow,  

DLR